Regional Weather Roundup
Issued by NWS San Angelo, TX

Home | Current Version | Previous Version | Text Only | Print | Product List | Glossary On
Versions: 1 2 3 4 5 6 7 8 9 10 11 12 13 14 15 16 17 18 19 20 21 22 23 24 25 26 27 28 29 30 31 32 33 34 35 36 37 38 39 40 41 42 43 44 45 46 47 48 49 50
000
ASUS44 KSJT 260310
RWRSJT
WEST CENTRAL TEXAS REGIONAL WEATHER ROUNDUP
NATIONAL WEATHER SERVICE SAN ANGELO TX
1000 PM CDT TUE JUL 25 2017

NOTE: "FAIR" INDICATES FEW OR NO CLOUDS BELOW 12,000 FEET WITH NO
SIGNIFICANT WEATHER AND/OR OBSTRUCTIONS TO VISIBILITY.

TXZ049-054-064>066-071>073-076>078-098-099-113-114-127-128-139-140-
154-155-168>170-260400
...LOCATIONS ACROSS WEST CENTRAL TEXAS...

CITY           SKY/WX    TMP DP  RH WIND       PRES   REMARKS
SAN ANGELO     CLEAR     85  60  42 SE3       30.03R
ABILENE        CLEAR     85  63  47 SE8       30.04R
DYESS AFB      CLEAR     88  65  47 SE12      30.02R
JUNCTION       CLEAR     88  66  48 SE9       30.05R
SWEETWATER     CLEAR     85  62  45 SE8       30.09R
BROWNWOOD      MOCLDY    82  64  54 SE7       30.04R
COLEMAN        CLEAR     82  65  56 CALM      30.05R
SONORA         CLEAR     86  64  48 CALM      30.10R
OZONA          FAIR      86  59  39 SE6       30.09R
BRADY          NOT AVBL
$$

TEXAS PANHANDLE/OKLAHOMA PANHANDLE

CITY           SKY/WX    TMP DP  RH WIND       PRES   REMARKS
AMARILLO       PTCLDY    86  58  38 S15       30.07S
BORGER         CLEAR     89  60  37 S14G22    30.02R
CANADIAN       CLEAR     89  66  46 S15G23    29.99R
DALHART        MOCLDY    86  57  37 S15       30.07R
DUMAS          PTCLDY    81  60  48 S12       30.06R
GUYMON         NOT AVBL
HEREFORD       CLOUDY    83  60  45 S9        30.10R
PAMPA          CLEAR     88  58  36 S17G23    30.06R
PERRYTON       CLEAR     88  61  40 S10       30.00R
$$

SOUTHERN PANHANDLE/SOUTH PLAINS/ROLLING PLAINS

CITY           SKY/WX    TMP DP  RH WIND       PRES   REMARKS
LUBBOCK        PTCLDY    87  60  40 S15       30.07R
SNYDER         CLEAR     88  64  44 SE9       30.06R
CHILDRESS      CLEAR     91  62  37 S13       30.00R
SEMINOLE       CLEAR     84  58  41 S8        30.10R
$$

PERMIAN BASIN

CITY           SKY/WX    TMP DP  RH WIND       PRES   REMARKS
MIDLAND        CLEAR     87  60  40 S9        30.07R
ODESSA         CLEAR     88  58  36 S12       30.09R
WINK           CLEAR     88  57  34 SE12      30.03R
$$

FAR WEST/SOUTHWEST MOUNTAINS/TRANS PECOS

CITY           SKY/WX    TMP DP  RH WIND       PRES   REMARKS
ALPINE         CLEAR     79  58  49 SE8       30.22R
DRYDEN           N/A     87  62  43 E10       30.01R
EL PASO        MOCLDY    90  57  32 W8        30.08R
FORT STOCKTON  CLEAR     85  63  47 SE14      30.07R
GUADALUPE PASS CLOUDY    78  57  48 NE8       30.24R
MARFA          NOT AVBL
PECOS          CLEAR     89  58  35 E12       30.02R
$$

DALLAS/FORT WORTH METROPLEX

CITY           SKY/WX    TMP DP  RH WIND       PRES   REMARKS
DFW AIRPORT    CLEAR     90  70  51 SE15      30.01R
FTW MEACHAM    CLEAR     90  70  51 SE12      30.01R
DAL-EXECUTIVE  CLEAR     87  70  56 SE10      30.03R
GRAND PRAIRIE  CLEAR     87  67  51 SE7       30.03S
ADDISON        PTCLDY    88  68  51 MISG      30.03R
MESQUITE       CLEAR     82  70  66 SE3       30.04R
LANCASTER      CLEAR     85  69  58 SE6       30.04R
$$

NORTH CENTRAL TEXAS

CITY           SKY/WX    TMP DP  RH WIND       PRES   REMARKS
SHRMAN/DENISON CLEAR     85  71  63 SE13      30.04S
GAINESVILLE    CLEAR     82  70  67 E6        30.05R
BRIDGEPORT     CLEAR     85  68  57 S7        30.03S
DENTON         CLEAR     85  72  65 SE8       30.01R
WAXAHACHIE     CLEAR     86  70  59 SE6       30.05R
GRANBURY       CLEAR     89  68  48 SE9       30.03R
$$

WESTERN NORTH TEXAS

CITY           SKY/WX    TMP DP  RH WIND       PRES   REMARKS
WICHITA FALLS  CLEAR     86  69  56 SE13      29.99R
VERNON         CLEAR     89  63  40 SE14      29.99S
BRECKENRIDGE   CLEAR     88  62  41 SE8       30.02R
COMANCHE       CLEAR     83  66  55 S6        30.04S
$$

CENTRAL AND SOUTH CENTRAL TEXAS

CITY           SKY/WX    TMP DP  RH WIND       PRES   REMARKS
AUSTIN/BERGSTM CLEAR     88  70  55 S16       30.05R
WACO           CLEAR     89  70  53 SE15      30.02R
HILLSBORO      CLEAR     87  69  53 SE10      30.03R
TEMPLE         CLEAR     89  69  51 SE14      30.04R
KILLEEN-GRAY   PTCLDY    88  66  48 SE14      30.04R
FORT HOOD      CLEAR     89  67  48 SE9       30.01R
GEORGETOWN     CLEAR     88  70  55 S12G23    30.05R
LAGO VISTA     FAIR      87  67  52 SE9G20    30.08R
SAN MARCOS     CLEAR     86  66  51 S14       30.07R
NEW BRAUNFELS  CLEAR     87  71  58 S14       30.05R
RANDOLPH AFB   CLEAR     85  73  65 SE12      30.06R
SAN ANTONIO    PTCLDY    87  70  56 SE18G31   30.06R
STINSON        CLEAR     88  70  55 SE16      30.04R
PLEASANTON     NOT AVBL
LA GRANGE      CLEAR     85  73  65 S5        30.05R
GIDDINGS       CLEAR     85  68  56 S7        30.08R
$$

EAST TEXAS

CITY           SKY/WX    TMP DP  RH WIND       PRES   REMARKS
PARIS            N/A     81  73  76 S7        30.06R
CLARKSVILLE    NOT AVBL
TYLER          CLEAR     85  73  67 S9        30.06S
LONGVIEW       CLEAR     81  74  79 SE5       30.06R
PALESTINE      CLEAR     85  74  70 SE8       30.07R
NACOGDOCHES    CLEAR     81  73  78 S3        30.06R
$$

TEXAS HILL COUNTRY AND EDWARDS PLATEAU

CITY           SKY/WX    TMP DP  RH WIND       PRES   REMARKS
LLANO          PTCLDY    88  68  51 SE8       30.07R
HORSESHOE BAY  FAIR      87  67  51 S8G17     30.05R
KERRVILLE      PTCLDY    83  71  68 S15G23    30.10R
FREDERICKSBRG  MOCLDY    85  65  51 S13       30.09R
ROCKSPRINGS    NOT AVBL
HONDO          CLOUDY    83  73  72 SE14      30.06R
UVALDE         CLOUDY    86  71  60 SE14G24   30.04R
DEL RIO        MOCLDY    93  66  40 SE21G31   29.97R
$$

SOUTHEAST TEXAS

CITY           SKY/WX    TMP DP  RH WIND       PRES   REMARKS
COLLEGE STN    CLEAR     86  72  62 S10       30.07R
CALDWELL       NOT AVBL
CROCKETT       PTCLDY    82  75  78 SE5       30.11R
BRENHAM        CLEAR     86  71  60 S7        30.08R
HUNTSVILLE     CLEAR     85  75  72 SE5       30.08R
CONROE         CLEAR     83  77  82 SE9       30.09R
HOUSTON BUSH   MOCLDY    85  75  72 S9        30.08R
HOUSTON HOBBY  PTCLDY    83  73  72 SE5       30.09R
PERLAND        CLOUDY    83  74  74 SE5       30.11R
WHARTON        CLEAR     79  73  80 SE6       30.09R
$$

THE UPPER TEXAS COAST

CITY           SKY/WX    TMP DP  RH WIND       PRES   REMARKS
ORANGE         CLEAR     82  78  88 CALM      30.12R
PORT ARTHUR    CLOUDY    80  76  87 SE3       30.09R
GALVESTON      CLOUDY    84  76  76 S21G26    30.11R
ANGLETON       CLOUDY    84  78  82 SE5       30.10R
BAY CITY       CLEAR     81  77  86 SE5       30.08S
$$

TEXAS COASTAL BEND, RIO GRANDE PLAINS DEEP SOUTH TEXAS

CITY           SKY/WX    TMP DP  RH WIND       PRES   REMARKS
VICTORIA       PTCLDY    83  76  79 SE12      30.06R
BEEVILLE       FAIR      83  77  82 SE7       30.05R
ROCKPORT       MOCLDY    85  77  77 SE13      30.06R
PORT ARANSAS   CLEAR     83  76  79 S12G20    30.05R
PORT LAVACA    CLEAR     81  76  85 SE6       30.07S
CORPUS CHRISTI MOCLDY    83  76  79 SE12      30.04R
KINGSVILLE NAS MOCLDY    84  78  82 SE13      30.02R
COTULLA        PTCLDY    87  70  56 SE12      30.01R
LAREDO         CLEAR     86  73  65 SE9       30.00R
BROWNSVILLE    CLEAR     77  71  82 SE10      30.04R
PORT ISABEL    CLEAR     80  71  74 SE10      30.02R
HEBBRONVILLE   PTCLDY    80  72  77 SE13      30.04R
MCALLEN        PTCLDY    84  67  56 SE9       30.02R
WESLACO        PTCLDY    81  67  63 SE6       30.00R
FALFURRIAS     CLOUDY    79  74  85 E3        30.02R
EDINBURG       CLOUDY    85  65  52 SE5       30.02R
$$



USA.gov is the U.S. government's official web portal to all federal, state and local government web resources and services.